Showing default

JILIN-01-04, 43022

Orbit data source: Space-Track

JILIN-01-04, 43022 is a payload satellite owned by Changguang WJ (CN) in SSO that was launched on Tue, 21 Nov 2017 UTC via a CHANG ZHENG 6 launch vehicle from the Taiyaun Space Center, China (TSC). Payload-class satellites include a variety of spacecraft equipped with specific instruments for various scientific and technological missions. These include communications satellites like Starlink; space stations such as the ISS; scientific satellites like the Hubble; Earth observation satellites from companies like Planet Labs, Umbra, and HawkEye 360; GPS; miniature CubeSats for education and research; and military/defense satellites.

Loading next visibility...
Identifier
43022, 2017-074A
Orbit
SSO
Last TLE update
9 hours ago
Origin
Manufacturer
HARB/CIOMP
Mission
Operational Commercial Imaging
Bus & Motor
JL-1, Unknown motor
Mass
95 kg wet, 95 kg dry
Launch date (UTC)
2017-11-21 (8 years ago)
Launch vehicle
CHANG ZHENG 6
Launch site
Taiyaun Space Center, China (TSC)
Object type
Payload
Rocket body
Debris
Shape & HBR
Box + 2 Pan, 1.5 m
Radar Cross Section
2.000 m², Medium (>0.1 m² and < 1m²)

Expand to show TLE details & history

TLE from 9 hours ago
0 JILIN-01-04
1 43022U 17074A   25181.88796060  .00006845  00000-0  22242-3 0  9999
2 43022  97.4791 280.2760 0005456  31.4578 328.6989 15.32234809420304
Epoch: 2025-06-30T21:18Z
TLE epoch observation values (Epoch: 2025-06-30T21:18:39.795Z)
Latitude
-0.00004°
Longitude
41.41888°
Altitude
469.059 km
Speed
7.633 km/s
True Right ascension
18h 41m 06s
True Declination
0° 00' 00"
Sunlit
Object was in full shadow at epoch
Visualization orbit readout
Latitude
-29.80783°
Longitude
46.0985°
Altitude
478.528 km
Speed
7.626 km/s
Apparent Right ascension
21h 42m 37s
Apparent Declination
-78° 25' 57"
Sunlit
Object is in full shadow
Visualization observer readout
Local Sidereal Time
18:12:54
Azimuth
169.158° S
Elevation
-32.334°
Doppler factor
1
Orbital elements
Apogee altitude
469.833 km
Perigee altitude
462.365 km
Semi-major axis
6,844.236 km
Eccentricity
0.00055
Inclination
97.4791°
RAAN
280.276°
Arg. of periapsis
31.4578°
True anomaly
Unknown
Mean anomaly
328.6989°
Eccentric anomaly
Unknown
Mean motion
3.83315 °/min
Orbital period
93.92 mins
BSTAR
0.00022242
Loading maneuver chart data...
Loading SW <> Apogee altitude chart data...
Loading historical data...
Loading historical data...
Loading historical data...
Loading historical data...
Loading historical data...
Loading historical data...
Loading historical data...
Other satellites on launch #74 in the year 2017 (2017-11-21 UTC)

JILIN-01-04 Visibility forecast

Observer location: undefined°, undefined°

Span
Click to sort rows by Start time (UTC) header in descending order
Start Az.
Max El. time (UTC)
Max El. Az.
Max El.
End time (UTC)
End Az.
6 mins2025-07-01 06:50:05.488Z180.808° SSW2025-07-01 06:53:05.488Z245.089° WSW39.431°2025-07-01 06:56:05.488Z336.95° NNW
4 mins2025-07-01 19:50:05.488Z337.456° NNW2025-07-01 19:51:05.488Z302.42° NW33.891°2025-07-01 19:54:05.488Z217.192° SW
5 mins2025-07-02 06:22:05.488Z144.884° SSE2025-07-02 06:24:05.488Z82.186° E38.346°2025-07-02 06:27:05.488Z359.893° N
|